This demonstration page uses our WeatherBlox Daily Observations layout. Learn more.

39.29038, -76.61219

Hourly Observations for August 10, 2019

Temp ( °F °C ) Dew Point ( °F °C ) Humidity (%) Winds ( mph kmh ) Pressure ( in mb ) Visibility ( mi km ) Precip ( " mm )
12:54 am 00:54 undefined 76 24.4 53 11.7 45 45 undefined N/A 29.85 1011 N/A 0 0
1:54 am 01:54 undefined 74 23.3 54 12.2 50 50 undefined N/A 29.85 1011 N/A 0 0
2:54 am 02:54 undefined 72 22.2 54 12.2 53 53 undefined N/A 29.85 1011 N/A 0 0
3:54 am 03:54 undefined 71 21.7 54 12.2 55 55 undefined N/A 29.85 1011 N/A 0 0
4:54 am 04:54 undefined 70 21.1 54 12.2 57 57 undefined N/A 29.88 1012 N/A 0 0
5:54 am 05:54 undefined 68 20 54 12.2 61 61 undefined N/A 29.88 1012 N/A 0 0
6:54 am 06:54 undefined 68 20 54 12.2 61 61 undefined N/A 29.88 1012 N/A 0 0
7:54 am 07:54 undefined 72 22.2 55 12.8 55 55 undefined N/A 29.91 1013 N/A 0 0
8:54 am 08:54 undefined 75 23.9 54 12.2 48 48 undefined N/A 29.91 1013 N/A 0 0
9:54 am 09:54 undefined 79 26.1 55 12.8 44 44 undefined N/A 29.91 1013 N/A 0 0
10:54 am 10:54 undefined 81 27.2 54 12.2 39 39 undefined N/A 29.91 1013 N/A 0 0
11:54 am 11:54 undefined 83 28.3 55 12.8 38 38 undefined N/A 29.91 1013 N/A 0 0
12:54 pm 12:54 undefined 84 28.9 55 12.8 37 37 undefined N/A 29.88 1012 N/A 0 0
1:54 pm 13:54 undefined 84 28.9 55 12.8 37 37 undefined N/A 29.88 1012 N/A 0 0
2:54 pm 14:54 undefined 83 28.3 55 12.8 38 38 undefined N/A 29.85 1011 N/A 0 0
3:54 pm 15:54 undefined 84 28.9 54 12.2 36 36 undefined N/A 29.85 1011 N/A 0 0
4:54 pm 16:54 undefined 85 29.4 56 13.3 37 37 undefined N/A 29.85 1011 N/A 0 0
5:54 pm 17:54 undefined 83 28.3 56 13.3 40 40 undefined N/A 29.85 1011 N/A 0 0
6:54 pm 18:54 undefined 83 28.3 57 13.9 41 41 undefined N/A 29.85 1011 N/A 0 0
7:54 pm 19:54 undefined 82 27.8 57 13.9 42 42 undefined N/A 29.85 1011 N/A 0 0
8:54 pm 20:54 undefined 80 26.7 58 14.4 47 47 undefined N/A 29.88 1012 N/A 0 0
9:54 pm 21:54 undefined 79 26.1 59 15 50 50 undefined N/A 29.91 1013 N/A 0 0
10:54 pm 22:54 undefined 79 26.1 56 13.3 45 45 undefined N/A 29.94 1014 N/A 0 0
11:54 pm 23:54 undefined 76 24.4 58 14.4 54 54 undefined N/A 29.94 1014 N/A 0 0

Powered by AerisWeather